Le nostre stazioni meteo in Italia

Pubblicità
Il mio iltempo24.it
Rodkallen, Svezia (2188): Temperatura & dewpoint: 09.09.2019 21:00:00 - 15.09.2019 21:00:00 (CEST)Rodkallen, Svezia (2188): velocità del vento & gusts: 09.09.2019 21:00:00 - 15.09.2019 21:00:00 (CEST)Rodkallen, Svezia (2188): direzione del vento: 09.09.2019 21:00:00 - 15.09.2019 21:00:00 (CEST)Rodkallen, Svezia (2188): visibility: 09.09.2019 21:00:00 - 15.09.2019 21:00:00 (CEST)Rodkallen, Svezia (2188): precipitazioni: 09.09.2019 21:00:00 - 15.09.2019 21:00:00 (CEST)
Data & Tempo tt [°C] td [°C] ff [km/h] ff [kn] fx [km/h] fx [kn] dd vv [km] rr [mm]
15.09.2019 21:00:00 - - - - - - - - -
15.09.2019 20:00:00 11,0 5,9 43 23 57 31 ENE 50 0,8
15.09.2019 19:00:00 10,1 6,8 40 22 53 29 NE 10 1,1
15.09.2019 18:00:00 10,6 6,5 40 21 58 31 E 13 1,1
15.09.2019 17:00:00 10,1 6,4 35 19 56 31 E 21 0,1
15.09.2019 16:00:00 9,6 6,0 33 18 54 29 E 9 1,7
15.09.2019 15:00:00 10,3 5,9 37 20 59 32 E 18 0,8
15.09.2019 14:00:00 10,4 5,4 36 19 53 28 E 19 0,0
15.09.2019 13:00:00 10,0 5,2 40 22 55 30 ESE 25 0,2
15.09.2019 12:00:00 10,6 5,6 41 22 52 28 ESE 50 0,5
15.09.2019 11:00:00 10,2 6,5 36 19 50 27 ESE 13 0,2
15.09.2019 10:00:00 9,6 5,4 35 19 66 36 ESE 7 2,3
15.09.2019 09:00:00 11,1 6,0 33 18 43 23 SSE 50 0,1
15.09.2019 08:00:00 9,2 6,5 27 15 47 26 S 6 1,5
15.09.2019 07:00:00 9,8 5,6 24 13 43 23 SO 48 0,1
15.09.2019 06:00:00 11,7 5,3 27 14 34 18 SSE 50 0,0
15.09.2019 05:00:00 11,3 5,4 23 13 34 18 S 50 0,0
15.09.2019 04:00:00 11,2 5,9 27 15 33 18 S 50 0,0
15.09.2019 03:00:00 11,1 6,4 20 11 24 13 S 50 0,0
15.09.2019 02:00:00 10,8 5,8 14 8 22 12 S 50 0,0
15.09.2019 01:00:00 11,2 5,7 17 9 22 12 SSO 50 0,0
15.09.2019 00:00:00 11,1 5,8 19 10 22 12 SSO 50 0,0
14.09.2019 23:00:00 11,0 6,1 18 10 22 12 SO 50 0,0
14.09.2019 22:00:00 11,4 5,3 13 7 20 11 SO 50 0,0
14.09.2019 21:00:00 11,8 4,5 19 10 34 18 OSO 50 0,0
14.09.2019 20:00:00 12,3 4,8 22 12 27 15 SSO 50 0,0
14.09.2019 19:00:00 12,1 4,8 16 9 19 11 SSO 50 0,0
14.09.2019 18:00:00 12,2 4,4 14 8 20 11 SSO 50 0,0
14.09.2019 17:00:00 12,2 5,4 16 9 22 12 SSO 50 0,0
14.09.2019 16:00:00 11,8 5,2 17 9 24 13 SSO 48 0,0
14.09.2019 15:00:00 11,8 4,5 20 11 24 13 SSO 41 0,0
14.09.2019 14:00:00 11,0 4,0 16 9 22 12 SSO 45 0,0
14.09.2019 13:00:00 11,3 4,3 12 7 17 9 SSO 42 0,0
14.09.2019 12:00:00 10,8 3,6 6 3 9 5 SO 42 0,0
14.09.2019 11:00:00 10,7 3,5 6 4 13 7 ONO 40 0,0
14.09.2019 10:00:00 10,0 4,6 12 6 18 10 ONO 44 0,0
14.09.2019 09:00:00 9,2 4,8 16 9 21 12 ONO 44 0,0
14.09.2019 08:00:00 8,8 3,4 14 7 28 15 NO 50 0,0
14.09.2019 07:00:00 8,2 3,5 19 10 35 19 NO 50 0,0
14.09.2019 06:00:00 8,1 3,7 25 14 33 18 ONO 50 0,0
14.09.2019 05:00:00 8,7 3,5 22 12 31 17 NO 50 0,0
14.09.2019 04:00:00 9,0 3,6 22 12 36 19 NO 50 0,0
14.09.2019 03:00:00 8,9 4,1 23 12 37 20 NO 50 0,0
14.09.2019 02:00:00 9,1 3,9 25 13 36 19 NO 40 0,0
14.09.2019 01:00:00 9,2 4,4 24 13 39 21 NO 50 0,0
14.09.2019 00:00:00 9,6 4,4 30 16 43 23 NO 50 0,0
13.09.2019 23:00:00 10,1 5,3 33 18 46 25 ONO 50 0,0
13.09.2019 22:00:00 10,7 6,3 36 20 46 25 ONO 50 0,0
13.09.2019 21:00:00 10,9 7,0 30 16 41 22 ONO 50 0,0
13.09.2019 20:00:00 11,1 6,8 30 16 41 22 O 50 0,5
13.09.2019 19:00:00 10,3 6,4 31 17 45 24 ONO 44 0,0
13.09.2019 18:00:00 10,1 6,3 13 7 32 17 NO 50 0,1
13.09.2019 17:00:00 9,8 6,0 24 13 52 28 NO 50 0,7
13.09.2019 16:00:00 10,6 8,2 28 15 37 20 ONO 18 0,1
13.09.2019 15:00:00 10,3 6,8 24 13 46 25 NO 16 0,1
13.09.2019 14:00:00 12,7 6,3 25 14 35 19 OSO 50 0,0
13.09.2019 13:00:00 12,5 6,8 26 14 32 17 SO 46 0,0
13.09.2019 12:00:00 12,4 4,9 22 12 38 21 OSO 35 0,0
13.09.2019 11:00:00 12,1 5,5 32 17 41 22 O 46 0,0
13.09.2019 10:00:00 11,7 5,6 31 17 40 21 OSO 46 0,0
13.09.2019 09:00:00 11,2 5,5 32 18 42 23 O 45 0,0
13.09.2019 08:00:00 11,0 5,7 32 18 46 25 O 44 0,0
13.09.2019 07:00:00 11,1 5,8 36 20 44 24 O 40 0,0
13.09.2019 06:00:00 11,5 6,6 34 19 41 22 O 50 0,0
13.09.2019 05:00:00 11,8 6,7 34 18 40 22 O 50 0,0
13.09.2019 04:00:00 12,4 7,5 31 17 36 19 OSO 50 0,0
13.09.2019 03:00:00 12,4 8,7 27 15 39 21 OSO 50 0,0
13.09.2019 02:00:00 12,7 8,6 32 17 37 20 SO 50 0,0
13.09.2019 01:00:00 13,0 9,3 27 15 34 18 SO 50 0,0
13.09.2019 00:00:00 13,2 9,1 27 15 36 19 SO 50 0,0
12.09.2019 23:00:00 13,4 10,0 31 17 36 19 SO 50 0,0
12.09.2019 22:00:00 13,8 10,0 29 15 35 19 SO 50 0,0
12.09.2019 21:00:00 14,2 10,2 32 17 37 20 SO 50 0,0
12.09.2019 20:00:00 14,4 10,6 19 11 32 18 SO 50 0,0
12.09.2019 19:00:00 14,8 10,4 24 13 31 17 OSO 50 0,0
12.09.2019 18:00:00 15,2 10,4 22 12 27 14 OSO 42 0,0
12.09.2019 17:00:00 15,2 11,0 20 11 36 19 SO 45 0,0
12.09.2019 16:00:00 15,0 11,6 30 16 36 19 SSO 43 0,0
12.09.2019 15:00:00 14,9 11,9 28 15 32 17 SSO 36 0,0
12.09.2019 14:00:00 15,1 12,0 19 10 27 14 SO 39 0,0
12.09.2019 13:00:00 14,4 12,5 24 13 37 20 SSO 32 0,0
12.09.2019 12:00:00 14,0 12,6 30 16 37 20 S 24 0,0
12.09.2019 11:00:00 13,7 12,7 29 15 38 21 S 22 0,0
12.09.2019 10:00:00 13,5 12,6 33 18 39 21 S 20 1,4
12.09.2019 09:00:00 13,3 12,5 27 14 39 21 S 7 1,3
12.09.2019 08:00:00 13,5 12,6 34 19 45 24 S 14 0,0
12.09.2019 07:00:00 13,8 12,9 36 19 45 24 S 19 0,0
12.09.2019 06:00:00 14,0 13,4 30 16 39 21 S 17 0,8
12.09.2019 05:00:00 13,9 13,4 20 11 34 18 SSE 25 0,0
12.09.2019 04:00:00 13,8 13,2 20 11 26 14 SSE 21 0,1
12.09.2019 03:00:00 13,9 13,3 17 9 23 13 S 19 0,0
12.09.2019 02:00:00 14,1 13,3 20 11 27 15 SSE 29 0,0
12.09.2019 01:00:00 14,0 13,2 22 12 27 14 SSE 33 0,0
12.09.2019 00:00:00 14,1 13,3 20 11 34 18 SSE 26 0,0
11.09.2019 23:00:00 14,3 13,3 27 14 34 18 S 37 0,0
11.09.2019 22:00:00 14,4 13,3 22 12 28 15 SSE 42 0,0
11.09.2019 21:00:00 14,5 13,0 19 11 24 13 SSE 45 0,0
11.09.2019 20:00:00 14,2 13,4 14 8 18 10 SSE 34 0,0
11.09.2019 19:00:00 14,2 13,1 16 9 43 23 S 43 0,0
11.09.2019 18:00:00 14,8 12,8 27 15 37 20 S 35 0,0
11.09.2019 17:00:00 15,2 13,0 19 10 23 12 SSE 21 0,0
11.09.2019 16:00:00 14,8 13,5 11 6 18 10 SSE 9 0,0
11.09.2019 15:00:00 15,4 13,2 17 9 26 14 SE 17 0,0
11.09.2019 14:00:00 15,2 13,4 21 11 27 15 SE 15 0,0
11.09.2019 13:00:00 15,2 13,4 23 13 29 16 SE 16 0,0
11.09.2019 12:00:00 15,0 13,2 20 11 26 14 SE 15 0,0
11.09.2019 11:00:00 14,8 13,5 17 9 25 14 SE 10 0,0
11.09.2019 10:00:00 14,6 13,6 17 9 23 12 ESE 10 0,0
11.09.2019 09:00:00 14,4 13,9 17 9 22 12 SE 8 0,0
11.09.2019 08:00:00 14,1 13,8 14 7 23 12 SE 4,1 0,0
11.09.2019 07:00:00 13,9 13,6 17 9 25 14 SE 2,5 0,0
11.09.2019 06:00:00 13,8 13,5 16 9 22 12 ESE 0,5 0,0
11.09.2019 05:00:00 13,8 13,5 16 9 20 11 ESE 2,9 0,0
11.09.2019 04:00:00 13,9 13,4 13 7 18 10 ESE 6 0,0
11.09.2019 03:00:00 14,1 13,5 15 8 24 13 ESE 9 0,0
11.09.2019 02:00:00 14,5 13,7 16 9 22 12 SE 13 0,0
11.09.2019 01:00:00 14,1 13,5 16 8 25 13 SSE 10 0,0
11.09.2019 00:00:00 14,5 13,9 19 10 23 12 SE 14 0,0
10.09.2019 23:00:00 14,3 13,8 13 7 18 10 ESE 17 0,0
10.09.2019 22:00:00 13,8 13,5 7 4 15 8 ENE 10 0,0
10.09.2019 21:00:00 13,8 13,3 11 6 13 7 E 7 0,0
10.09.2019 20:00:00 14,1 13,6 3 2 8 4 ENE 10 0,0
10.09.2019 19:00:00 14,5 14,0 6 4 12 6 SE 11 0,0
10.09.2019 18:00:00 14,4 13,9 7 4 15 8 SSE - 0,0
10.09.2019 17:00:00 14,1 13,8 8 5 17 9 SSE 8 0,0
10.09.2019 16:00:00 14,2 13,9 13 7 18 10 ESE 11 0,0
10.09.2019 15:00:00 13,9 13,6 11 6 17 9 SE 0,8 0,0
10.09.2019 14:00:00 13,7 13,4 13 7 20 11 SE 0,4 0,0
10.09.2019 13:00:00 13,7 13,4 15 8 20 11 ESE 0,5 0,0
10.09.2019 12:00:00 13,9 13,3 16 8 21 11 ESE 7 0,0
10.09.2019 11:00:00 13,9 13,3 14 7 16 9 ESE 23 0,0
10.09.2019 10:00:00 13,7 13,1 11 6 14 8 E 16 0,0
10.09.2019 09:00:00 13,7 13,1 8 4 14 8 E 15 0,0
10.09.2019 08:00:00 13,7 13,1 9 5 11 6 E 19 0,0
10.09.2019 07:00:00 13,7 13,1 8 5 16 8 ESE 19 0,0
10.09.2019 06:00:00 13,7 13,1 14 7 17 9 ESE 29 0,0
10.09.2019 05:00:00 13,4 12,8 9 5 11 6 E 22 0,0
10.09.2019 04:00:00 13,5 12,9 7 4 12 7 E 23 0,0
10.09.2019 03:00:00 13,6 13,0 10 5 13 7 ENE 33 0,0
10.09.2019 02:00:00 13,5 12,9 13 7 16 9 NE 26 0,0
10.09.2019 01:00:00 13,6 12,8 14 7 17 9 NE 44 0,0
10.09.2019 00:00:00 13,5 12,6 14 7 17 9 ENE 49 0,0
09.09.2019 23:00:00 13,4 12,5 14 8 16 9 NE 50 0,0
09.09.2019 22:00:00 13,5 12,2 10 5 13 7 ENE 50 0,0
09.09.2019 21:00:00 13,4 11,6 11 6 16 8 ENE 50 0,0

tt = Temperatura
td = dewpoint
ff = velocità del vento
fx = gusts
dd = direzione del vento
vv = visibility
rr = precipitazioni

Stazioni seguenti

WeatherPro
AMSI
MeteoEarth